CGMTP CYTZ-CYGK

Flight info

Callsign CGMTP
Flight time 1h 16m
Altitude 3000
Route DAVSI DCT ILIXU
Aircraft C172/L-SFG/C

Departure

Time 2026-04-29 16:43
Airport Billy Bishop Toronto City Airport (CYTZ)

Arrival

Time 2026-04-29 18:00
Airport Kingston Norman Rogers Airport (CYGK)
Time Latitude Longitude Altitude Speed Heading
2026-04-29 16:20 43.63266 -79.39425 255 ft 0 kts 140°
2026-04-29 16:32 43.63259 -79.39419 255 ft 4 kts 156°
2026-04-29 16:32 43.63216 -79.39394 255 ft 10 kts 159°
2026-04-29 16:33 43.63144 -79.39305 255 ft 5 kts 58°
2026-04-29 16:33 43.63154 -79.39287 255 ft 2 kts 50°
2026-04-29 16:38 43.63155 -79.39286 255 ft 1 kts 64°
2026-04-29 16:38 43.63138 -79.39279 255 ft 6 kts 208°
2026-04-29 16:38 43.63096 -79.39331 255 ft 12 kts 239°
2026-04-29 16:38 43.63062 -79.39469 255 ft 18 kts 256°
2026-04-29 16:39 43.63022 -79.39640 255 ft 18 kts 251°
2026-04-29 16:39 43.62976 -79.39798 255 ft 17 kts 249°
2026-04-29 16:39 43.63001 -79.39945 254 ft 16 kts 292°
2026-04-29 16:39 43.63005 -79.40093 252 ft 17 kts 235°
2026-04-29 16:40 43.62907 -79.40234 249 ft 21 kts 221°
2026-04-29 16:40 43.62817 -79.40333 250 ft 0 kts 197°
2026-04-29 16:41 43.62799 -79.40330 251 ft 6 kts 158°
2026-04-29 16:42 43.62759 -79.40284 252 ft 8 kts 98°
2026-04-29 16:42 43.62794 -79.40142 252 ft 36 kts 72°
2026-04-29 16:42 43.62904 -79.39676 338 ft 55 kts 65°
2026-04-29 16:42 43.63052 -79.39155 464 ft 59 kts 57°
2026-04-29 16:43 43.63279 -79.38637 572 ft 69 kts 56°
2026-04-29 16:43 43.63518 -79.38053 715 ft 71 kts 54°
2026-04-29 16:43 43.63778 -79.37457 826 ft 72 kts 54°
2026-04-29 16:43 43.64043 -79.36880 961 ft 70 kts 56°
2026-04-29 16:44 43.64316 -79.36330 1110 ft 68 kts 59°
2026-04-29 16:44 43.64596 -79.35797 1281 ft 70 kts 60°
2026-04-29 16:44 43.64844 -79.35213 1496 ft 71 kts 62°
2026-04-29 16:44 43.65110 -79.34594 1644 ft 78 kts 65°
2026-04-29 16:45 43.65186 -79.33883 1789 ft 76 kts 99°
2026-04-29 16:45 43.65329 -79.33210 1957 ft 77 kts 64°
2026-04-29 16:45 43.65583 -79.32557 2116 ft 77 kts 69°
2026-04-29 16:45 43.65856 -79.31918 2269 ft 79 kts 66°
2026-04-29 16:46 43.66150 -79.31254 2421 ft 82 kts 65°
2026-04-29 16:46 43.66453 -79.30573 2576 ft 84 kts 65°
2026-04-29 16:46 43.66770 -79.29879 2730 ft 88 kts 66°
2026-04-29 16:46 43.67111 -79.29139 2887 ft 93 kts 65°
2026-04-29 16:47 43.67462 -79.28388 3045 ft 95 kts 64°
2026-04-29 16:47 43.67783 -79.27713 3187 ft 96 kts 63°
2026-04-29 16:47 43.68150 -79.26935 3336 ft 96 kts 64°
2026-04-29 16:47 43.68513 -79.26166 3483 ft 94 kts 64°
2026-04-29 16:48 43.68866 -79.25417 3629 ft 93 kts 64°
2026-04-29 16:48 43.69206 -79.24679 3777 ft 90 kts 68°
2026-04-29 16:48 43.69544 -79.23943 3925 ft 90 kts 67°
2026-04-29 16:48 43.69880 -79.23223 4076 ft 89 kts 66°
2026-04-29 16:49 43.70213 -79.22516 4223 ft 88 kts 66°
2026-04-29 16:49 43.70523 -79.21792 4375 ft 83 kts 80°
2026-04-29 16:49 43.70628 -79.21043 4531 ft 80 kts 85°
2026-04-29 16:49 43.70737 -79.20303 4685 ft 78 kts 88°
2026-04-29 16:50 43.70845 -79.19572 4832 ft 77 kts 87°
2026-04-29 16:50 43.70946 -79.18858 4965 ft 75 kts 87°
2026-04-29 16:50 43.71056 -79.18084 4976 ft 90 kts 85°
2026-04-29 16:50 43.71184 -79.17193 4985 ft 98 kts 85°
2026-04-29 16:51 43.71320 -79.16244 4987 ft 103 kts 85°
2026-04-29 16:51 43.71459 -79.15272 4982 ft 100 kts 85°
2026-04-29 16:51 43.71590 -79.14355 4977 ft 94 kts 86°
2026-04-29 16:51 43.71715 -79.13480 4973 ft 91 kts 85°
2026-04-29 16:52 43.71834 -79.12644 4971 ft 88 kts 86°
2026-04-29 16:52 43.71951 -79.11826 4966 ft 90 kts 85°
2026-04-29 16:52 43.72077 -79.10939 4975 ft 96 kts 85°
2026-04-29 16:52 43.72209 -79.10014 4984 ft 100 kts 85°
2026-04-29 16:53 43.72345 -79.09064 4992 ft 102 kts 85°
2026-04-29 16:53 43.72484 -79.08087 4991 ft 104 kts 84°
2026-04-29 16:53 43.72624 -79.07106 4996 ft 105 kts 84°
2026-04-29 16:53 43.72766 -79.06117 4998 ft 105 kts 84°
2026-04-29 16:54 43.72907 -79.05124 5001 ft 106 kts 84°
2026-04-29 16:54 43.73051 -79.04110 4994 ft 107 kts 85°
2026-04-29 16:54 43.73195 -79.03097 4998 ft 110 kts 84°
2026-04-29 16:54 43.73344 -79.02043 5003 ft 112 kts 84°
2026-04-29 16:55 43.73493 -79.01006 5089 ft 106 kts 84°
2026-04-29 16:55 43.73633 -79.00012 5088 ft 104 kts 85°
2026-04-29 16:55 43.73776 -78.99042 5107 ft 102 kts 82°
2026-04-29 16:55 43.73977 -78.98149 5188 ft 96 kts 78°
2026-04-29 16:56 43.74211 -78.97319 5355 ft 90 kts 76°
2026-04-29 16:56 43.74420 -78.96545 5556 ft 80 kts 74°
2026-04-29 16:56 43.74660 -78.95838 5671 ft 82 kts 71°
2026-04-29 16:56 43.74884 -78.95072 5711 ft 89 kts 87°
2026-04-29 16:57 43.74880 -78.94207 5807 ft 84 kts 110°
2026-04-29 16:57 43.74770 -78.93438 5950 ft 81 kts 103°
2026-04-29 16:57 43.74708 -78.92658 6037 ft 86 kts 97°
2026-04-29 16:57 43.74735 -78.91870 6194 ft 81 kts 82°
2026-04-29 16:58 43.74912 -78.91113 6269 ft 85 kts 76°
2026-04-29 16:58 43.75128 -78.90404 6425 ft 80 kts 68°
2026-04-29 16:58 43.75428 -78.89594 6353 ft 100 kts 66°
2026-04-29 16:58 43.75782 -78.88773 6435 ft 99 kts 64°
2026-04-29 16:59 43.76135 -78.87971 6511 ft 99 kts 65°
2026-04-29 16:59 43.76354 -78.87096 6579 ft 96 kts 83°
2026-04-29 16:59 43.76508 -78.86261 6753 ft 87 kts 81°
2026-04-29 16:59 43.76659 -78.85412 6817 ft 92 kts 82°
2026-04-29 17:00 43.76785 -78.84523 6915 ft 90 kts 85°
2026-04-29 17:00 43.76913 -78.83655 6968 ft 96 kts 82°
2026-04-29 17:00 43.77070 -78.82712 6980 ft 102 kts 80°
2026-04-29 17:00 43.77250 -78.81747 7005 ft 105 kts 78°
2026-04-29 17:01 43.77445 -78.80765 7006 ft 107 kts 85°
2026-04-29 17:01 43.77440 -78.79735 7001 ft 107 kts 96°
2026-04-29 17:01 43.77141 -78.78829 7008 ft 106 kts 123°
2026-04-29 17:01 43.76872 -78.77877 7004 ft 108 kts 99°
2026-04-29 17:02 43.76942 -78.76839 7012 ft 109 kts 84°
2026-04-29 17:02 43.77057 -78.75799 7008 ft 110 kts 82°
2026-04-29 17:02 43.77202 -78.74787 7095 ft 102 kts 80°
2026-04-29 17:02 43.77372 -78.73872 7229 ft 94 kts 77°
2026-04-29 17:03 43.77560 -78.73031 7369 ft 88 kts 74°
2026-04-29 17:03 43.77762 -78.72267 7489 ft 84 kts 73°
2026-04-29 17:03 43.77992 -78.71533 7611 ft 81 kts 68°
2026-04-29 17:03 43.78248 -78.70827 7693 ft 85 kts 66°
2026-04-29 17:04 43.78549 -78.70075 7720 ft 93 kts 63°
2026-04-29 17:04 43.78888 -78.69293 7758 ft 98 kts 61°
2026-04-29 17:04 43.79265 -78.68485 7792 ft 100 kts 59°
2026-04-29 17:04 43.79659 -78.67700 7870 ft 98 kts 57°
2026-04-29 17:05 43.80060 -78.66939 7940 ft 96 kts 65°
2026-04-29 17:05 43.80107 -78.66053 8022 ft 92 kts 94°
2026-04-29 17:05 43.80105 -78.65173 8098 ft 92 kts 94°
2026-04-29 17:05 43.80099 -78.64284 8174 ft 92 kts 94°
2026-04-29 17:06 43.80098 -78.63392 8247 ft 92 kts 92°
2026-04-29 17:06 43.80099 -78.62516 8331 ft 92 kts 95°
2026-04-29 17:06 43.80102 -78.61627 8408 ft 92 kts 93°
2026-04-29 17:06 43.80104 -78.60743 8478 ft 92 kts 93°
2026-04-29 17:07 43.79864 -78.59973 8561 ft 88 kts 127°
2026-04-29 17:07 43.79638 -78.59506 8603 ft 88 kts 124°
2026-04-29 17:07 43.79515 -78.58398 8713 ft 91 kts 85°
2026-04-29 17:07 43.79595 -78.57543 8788 ft 90 kts 86°
2026-04-29 17:08 43.79692 -78.56684 8868 ft 90 kts 85°
2026-04-29 17:08 43.79796 -78.55823 8951 ft 90 kts 85°
2026-04-29 17:08 43.79915 -78.54956 8993 ft 95 kts 81°
2026-04-29 17:08 43.79997 -78.54347 8993 ft 99 kts 82°
2026-04-29 17:09 43.80167 -78.53069 9002 ft 104 kts 81°
2026-04-29 17:09 43.80306 -78.52069 9009 ft 107 kts 82°
2026-04-29 17:09 43.80443 -78.51061 8999 ft 105 kts 82°
2026-04-29 17:09 43.80532 -78.50412 8999 ft 103 kts 82°
2026-04-29 17:10 43.80710 -78.49119 8990 ft 103 kts 82°
2026-04-29 17:10 43.80799 -78.48469 8989 ft 104 kts 82°
2026-04-29 17:10 43.80935 -78.47476 8994 ft 105 kts 82°
2026-04-29 17:10 43.81071 -78.46476 8996 ft 105 kts 83°
2026-04-29 17:11 43.81207 -78.45486 8995 ft 106 kts 83°
2026-04-29 17:11 43.81343 -78.44483 8997 ft 106 kts 83°
2026-04-29 17:11 43.81480 -78.43477 8994 ft 107 kts 83°
2026-04-29 17:11 43.81619 -78.42464 8993 ft 106 kts 84°
2026-04-29 17:12 43.81753 -78.41468 8995 ft 106 kts 81°
2026-04-29 17:12 43.81891 -78.40460 8995 ft 107 kts 82°
2026-04-29 17:12 43.82028 -78.39446 8993 ft 107 kts 83°
2026-04-29 17:12 43.82120 -78.38772 8994 ft 107 kts 83°
2026-04-29 17:13 43.82304 -78.37414 8995 ft 107 kts 82°
2026-04-29 17:13 43.82442 -78.36399 8992 ft 107 kts 82°
2026-04-29 17:13 43.82578 -78.35395 8994 ft 108 kts 84°
2026-04-29 17:13 43.82716 -78.34375 8994 ft 107 kts 83°
2026-04-29 17:14 43.82855 -78.33350 8995 ft 107 kts 83°
2026-04-29 17:14 43.82991 -78.32343 8994 ft 108 kts 82°
2026-04-29 17:14 43.83129 -78.31318 8991 ft 108 kts 83°
2026-04-29 17:14 43.83269 -78.30290 8991 ft 110 kts 83°
2026-04-29 17:15 43.83412 -78.29239 8992 ft 112 kts 84°
2026-04-29 17:15 43.83557 -78.28167 8993 ft 113 kts 83°
2026-04-29 17:15 43.83703 -78.27084 8997 ft 115 kts 85°
2026-04-29 17:15 43.83866 -78.26016 8998 ft 115 kts 83°
2026-04-29 17:16 43.84004 -78.24917 8996 ft 115 kts 83°
2026-04-29 17:16 43.84146 -78.23823 8995 ft 115 kts 83°
2026-04-29 17:16 43.84292 -78.22719 8989 ft 116 kts 83°
2026-04-29 17:16 43.84437 -78.21636 8990 ft 116 kts 83°
2026-04-29 17:17 43.84583 -78.20538 8989 ft 116 kts 84°
2026-04-29 17:17 43.84730 -78.19433 8992 ft 116 kts 83°
2026-04-29 17:17 43.84879 -78.18319 8991 ft 117 kts 84°
2026-04-29 17:17 43.85028 -78.17204 8992 ft 118 kts 83°
2026-04-29 17:18 43.85176 -78.16105 8991 ft 118 kts 83°
2026-04-29 17:18 43.85325 -78.14990 8995 ft 118 kts 83°
2026-04-29 17:18 43.85474 -78.13872 8993 ft 118 kts 83°
2026-04-29 17:18 43.85623 -78.12754 8991 ft 118 kts 83°
2026-04-29 17:19 43.85773 -78.11634 8992 ft 118 kts 84°
2026-04-29 17:19 43.85919 -78.10536 8992 ft 117 kts 83°
2026-04-29 17:19 43.86064 -78.09445 8991 ft 116 kts 83°
2026-04-29 17:19 43.86211 -78.08343 8986 ft 116 kts 84°
2026-04-29 17:20 43.86357 -78.07244 8986 ft 116 kts 83°
2026-04-29 17:20 43.86503 -78.06144 8990 ft 116 kts 84°
2026-04-29 17:20 43.86649 -78.05042 8995 ft 116 kts 84°
2026-04-29 17:20 43.86795 -78.03940 8993 ft 116 kts 84°
2026-04-29 17:21 43.86941 -78.02839 8994 ft 116 kts 84°
2026-04-29 17:21 43.87087 -78.01741 8992 ft 116 kts 84°
2026-04-29 17:21 43.87232 -78.00637 8991 ft 116 kts 83°
2026-04-29 17:21 43.87378 -77.99533 8993 ft 116 kts 83°
2026-04-29 17:22 43.87524 -77.98429 8992 ft 116 kts 83°
2026-04-29 17:22 43.87669 -77.97328 8987 ft 116 kts 83°
2026-04-29 17:22 43.87813 -77.96234 8987 ft 117 kts 83°
2026-04-29 17:22 43.87959 -77.95131 8987 ft 116 kts 84°
2026-04-29 17:23 43.88105 -77.94027 8987 ft 116 kts 84°
2026-04-29 17:23 43.88249 -77.92928 8991 ft 116 kts 84°
2026-04-29 17:23 43.88394 -77.91825 8995 ft 116 kts 84°
2026-04-29 17:23 43.88539 -77.90719 8994 ft 116 kts 84°
2026-04-29 17:24 43.88684 -77.89614 8992 ft 116 kts 84°
2026-04-29 17:24 43.88829 -77.88515 8995 ft 116 kts 84°
2026-04-29 17:24 43.88971 -77.87424 8993 ft 117 kts 84°
2026-04-29 17:24 43.89116 -77.86319 8992 ft 116 kts 84°
2026-04-29 17:25 43.89261 -77.85212 8991 ft 116 kts 84°
2026-04-29 17:25 43.89406 -77.84105 8993 ft 116 kts 84°
2026-04-29 17:25 43.89550 -77.82997 8993 ft 117 kts 84°
2026-04-29 17:25 43.89696 -77.81885 8994 ft 117 kts 84°
2026-04-29 17:26 43.89840 -77.80777 8995 ft 117 kts 84°
2026-04-29 17:26 43.89985 -77.79667 8994 ft 117 kts 84°
2026-04-29 17:26 43.90128 -77.78565 8994 ft 118 kts 84°
2026-04-29 17:26 43.90274 -77.77446 8995 ft 118 kts 84°
2026-04-29 17:27 43.90419 -77.76326 8994 ft 118 kts 84°
2026-04-29 17:27 43.90565 -77.75206 8992 ft 118 kts 84°
2026-04-29 17:27 43.90711 -77.74078 8994 ft 120 kts 84°
2026-04-29 17:27 43.90859 -77.72940 8998 ft 120 kts 84°
2026-04-29 17:28 43.91007 -77.71797 8996 ft 120 kts 84°
2026-04-29 17:28 43.91155 -77.70653 8996 ft 121 kts 84°
2026-04-29 17:28 43.91304 -77.69503 8995 ft 121 kts 84°
2026-04-29 17:28 43.91451 -77.68368 8993 ft 122 kts 84°
2026-04-29 17:29 43.91601 -77.67206 8992 ft 123 kts 84°
2026-04-29 17:29 43.91751 -77.66040 8995 ft 123 kts 84°
2026-04-29 17:29 43.91903 -77.64865 8990 ft 123 kts 84°
2026-04-29 17:29 43.92002 -77.64098 8990 ft 121 kts 84°
2026-04-29 17:30 43.92199 -77.62568 8981 ft 120 kts 84°
2026-04-29 17:30 43.92345 -77.61436 8982 ft 118 kts 84°
2026-04-29 17:30 43.92489 -77.60311 8986 ft 118 kts 84°
2026-04-29 17:30 43.92633 -77.59189 8983 ft 118 kts 84°
2026-04-29 17:31 43.92776 -77.58079 8982 ft 118 kts 84°
2026-04-29 17:31 43.92920 -77.56957 8984 ft 118 kts 84°
2026-04-29 17:31 43.93063 -77.55837 8991 ft 118 kts 85°
2026-04-29 17:31 43.93207 -77.54712 8988 ft 118 kts 85°
2026-04-29 17:32 43.93351 -77.53585 8987 ft 118 kts 85°
2026-04-29 17:32 43.93493 -77.52480 8988 ft 118 kts 85°
2026-04-29 17:32 43.93637 -77.51353 8994 ft 118 kts 85°
2026-04-29 17:32 43.93780 -77.50229 8991 ft 118 kts 85°
2026-04-29 17:33 43.93923 -77.49106 8992 ft 118 kts 85°
2026-04-29 17:33 43.94066 -77.47985 8993 ft 118 kts 85°
2026-04-29 17:33 43.94209 -77.46853 8993 ft 120 kts 85°
2026-04-29 17:33 43.94355 -77.45707 8993 ft 121 kts 85°
2026-04-29 17:34 43.94502 -77.44545 8992 ft 123 kts 85°
2026-04-29 17:34 43.94649 -77.43391 8993 ft 124 kts 85°
2026-04-29 17:34 43.94799 -77.42214 8995 ft 122 kts 85°
2026-04-29 17:34 43.94946 -77.41059 8989 ft 121 kts 85°
2026-04-29 17:35 43.95187 -77.39162 8984 ft 119 kts 85°
2026-04-29 17:35 43.95379 -77.37644 8992 ft 119 kts 85°
2026-04-29 17:35 43.95521 -77.36508 8990 ft 120 kts 85°
2026-04-29 17:36 43.95752 -77.35403 8995 ft 123 kts 67°
2026-04-29 17:36 43.96147 -77.34344 8990 ft 124 kts 68°
2026-04-29 17:36 43.96536 -77.33265 8992 ft 124 kts 68°
2026-04-29 17:36 43.96924 -77.32189 8989 ft 125 kts 68°
2026-04-29 17:37 43.97315 -77.31099 8933 ft 127 kts 68°
2026-04-29 17:37 43.97688 -77.30052 8880 ft 117 kts 68°
2026-04-29 17:37 43.98040 -77.29069 8782 ft 117 kts 69°
2026-04-29 17:37 43.98407 -77.28038 8627 ft 121 kts 68°
2026-04-29 17:38 43.98787 -77.26980 8475 ft 122 kts 68°
2026-04-29 17:38 43.99165 -77.25927 8332 ft 121 kts 68°
2026-04-29 17:38 43.99535 -77.24892 8173 ft 118 kts 68°
2026-04-29 17:38 43.99899 -77.23875 8023 ft 118 kts 68°
2026-04-29 17:39 44.00263 -77.22860 7873 ft 118 kts 68°
2026-04-29 17:39 44.00629 -77.21838 7730 ft 117 kts 68°
2026-04-29 17:39 44.00986 -77.20840 7577 ft 115 kts 69°
2026-04-29 17:39 44.01343 -77.19844 7423 ft 114 kts 69°
2026-04-29 17:40 44.01692 -77.18869 7275 ft 112 kts 69°
2026-04-29 17:40 44.02041 -77.17891 7124 ft 112 kts 69°
2026-04-29 17:40 44.02386 -77.16928 6984 ft 114 kts 69°
2026-04-29 17:40 44.02743 -77.15926 6840 ft 116 kts 68°
2026-04-29 17:41 44.03098 -77.14931 6697 ft 115 kts 69°
2026-04-29 17:41 44.03450 -77.13945 6559 ft 114 kts 69°
2026-04-29 17:41 44.03807 -77.12946 6412 ft 114 kts 70°
2026-04-29 17:41 44.04156 -77.11967 6264 ft 113 kts 69°
2026-04-29 17:42 44.04500 -77.11003 6102 ft 110 kts 69°
2026-04-29 17:42 44.04836 -77.10062 5952 ft 109 kts 69°
2026-04-29 17:42 44.05173 -77.09118 5798 ft 108 kts 69°
2026-04-29 17:42 44.05503 -77.08190 5644 ft 108 kts 69°
2026-04-29 17:43 44.05835 -77.07256 5469 ft 109 kts 69°
2026-04-29 17:43 44.06175 -77.06301 5304 ft 110 kts 69°
2026-04-29 17:43 44.06513 -77.05352 5127 ft 110 kts 68°
2026-04-29 17:43 44.06854 -77.04396 4953 ft 109 kts 68°
2026-04-29 17:44 44.07193 -77.03443 4782 ft 109 kts 68°
2026-04-29 17:44 44.07527 -77.02504 4609 ft 108 kts 68°
2026-04-29 17:44 44.07853 -77.01588 4468 ft 105 kts 68°
2026-04-29 17:44 44.08176 -77.00681 4336 ft 103 kts 68°
2026-04-29 17:45 44.08494 -76.99785 4203 ft 102 kts 67°
2026-04-29 17:45 44.08806 -76.98906 4081 ft 101 kts 67°
2026-04-29 17:45 44.09115 -76.98035 3949 ft 100 kts 67°
2026-04-29 17:45 44.09427 -76.97155 3823 ft 101 kts 67°
2026-04-29 17:46 44.09737 -76.96282 3698 ft 101 kts 66°
2026-04-29 17:46 44.10047 -76.95405 3576 ft 102 kts 67°
2026-04-29 17:46 44.10363 -76.94515 3453 ft 101 kts 66°
2026-04-29 17:46 44.10673 -76.93643 3330 ft 101 kts 66°
2026-04-29 17:47 44.10981 -76.92771 3202 ft 99 kts 66°
2026-04-29 17:47 44.11281 -76.91925 3088 ft 97 kts 65°
2026-04-29 17:47 44.11580 -76.91084 2986 ft 99 kts 65°
2026-04-29 17:47 44.11886 -76.90229 2987 ft 97 kts 65°
2026-04-29 17:48 44.12186 -76.89385 2986 ft 98 kts 65°
2026-04-29 17:48 44.12489 -76.88532 2995 ft 99 kts 65°
2026-04-29 17:48 44.12796 -76.87664 2982 ft 99 kts 65°
2026-04-29 17:48 44.13100 -76.86806 2984 ft 100 kts 66°
2026-04-29 17:49 44.13408 -76.85935 2985 ft 100 kts 65°
2026-04-29 17:49 44.13716 -76.85062 2924 ft 105 kts 65°
2026-04-29 17:49 44.14042 -76.84137 2827 ft 109 kts 65°
2026-04-29 17:49 44.14375 -76.83191 2729 ft 106 kts 66°
2026-04-29 17:50 44.14686 -76.82299 2621 ft 98 kts 65°
2026-04-29 17:50 44.14978 -76.81470 2518 ft 94 kts 64°
2026-04-29 17:50 44.15265 -76.80654 2371 ft 95 kts 65°
2026-04-29 17:50 44.15561 -76.79815 2213 ft 96 kts 64°
2026-04-29 17:51 44.15852 -76.78988 2060 ft 96 kts 64°
2026-04-29 17:51 44.16141 -76.78167 1985 ft 88 kts 64°
2026-04-29 17:51 44.16394 -76.77453 1971 ft 78 kts 64°
2026-04-29 17:51 44.16648 -76.76743 1969 ft 87 kts 63°
2026-04-29 17:52 44.16923 -76.75965 1970 ft 93 kts 64°
2026-04-29 17:52 44.17119 -76.75409 1973 ft 95 kts 64°
2026-04-29 17:52 44.17511 -76.74297 1976 ft 97 kts 64°
2026-04-29 17:52 44.17803 -76.73465 1978 ft 94 kts 64°
2026-04-29 17:53 44.18089 -76.72651 1977 ft 92 kts 64°
2026-04-29 17:53 44.18366 -76.71864 1976 ft 90 kts 64°
2026-04-29 17:53 44.18640 -76.71083 1974 ft 89 kts 64°
2026-04-29 17:53 44.18917 -76.70298 1972 ft 89 kts 64°
2026-04-29 17:54 44.19097 -76.69782 1973 ft 89 kts 64°
2026-04-29 17:54 44.19463 -76.68742 1982 ft 92 kts 64°
2026-04-29 17:54 44.19750 -76.67936 1978 ft 95 kts 62°
2026-04-29 17:54 44.20106 -76.67117 1950 ft 99 kts 60°
2026-04-29 17:55 44.20415 -76.66288 1942 ft 98 kts 62°
2026-04-29 17:55 44.20747 -76.65467 1894 ft 96 kts 60°
2026-04-29 17:55 44.21017 -76.64704 1799 ft 98 kts 70°
2026-04-29 17:55 44.21237 -76.63789 1727 ft 100 kts 69°
2026-04-29 17:56 44.21436 -76.63211 1706 ft 100 kts 58°
2026-04-29 17:56 44.21919 -76.62077 1609 ft 101 kts 60°
2026-04-29 17:56 44.22247 -76.61221 1498 ft 101 kts 62°
2026-04-29 17:56 44.22552 -76.60367 1363 ft 95 kts 63°
2026-04-29 17:57 44.22856 -76.59570 1215 ft 95 kts 60°
2026-04-29 17:57 44.23081 -76.59023 1199 ft 98 kts 59°
2026-04-29 17:57 44.23438 -76.58232 1228 ft 93 kts 48°
2026-04-29 17:57 44.23957 -76.57899 1288 ft 79 kts
2026-04-29 17:58 44.24514 -76.58026 1248 ft 83 kts 357°
2026-04-29 17:58 44.25087 -76.58090 1192 ft 80 kts 345°
2026-04-29 17:58 44.25438 -76.58569 1137 ft 74 kts 284°
2026-04-29 17:58 44.25337 -76.59295 1028 ft 77 kts 251°
2026-04-29 17:59 44.25142 -76.59949 998 ft 76 kts 244°
2026-04-29 17:59 44.24772 -76.60488 834 ft 81 kts 198°
2026-04-29 17:59 44.24225 -76.60433 613 ft 80 kts 167°
2026-04-29 17:59 44.23701 -76.60362 427 ft 72 kts 172°
2026-04-29 18:00 44.23196 -76.60302 318 ft 71 kts 174°
2026-04-29 18:00 44.22814 -76.60269 305 ft 37 kts 176°
2026-04-29 18:00 44.22684 -76.60221 303 ft 13 kts 121°
2026-04-29 18:00 44.22657 -76.60127 303 ft 11 kts 110°
2026-04-29 18:01 44.22625 -76.60012 303 ft 15 kts 110°
2026-04-29 18:01 44.22582 -76.59856 303 ft 19 kts 112°
2026-04-29 18:01 44.22537 -76.59690 305 ft 17 kts 112°
2026-04-29 18:01 44.22498 -76.59546 305 ft 15 kts 111°
2026-04-29 18:02 44.22460 -76.59415 302 ft 11 kts 122°
2026-04-29 18:02 44.22421 -76.59390 303 ft 10 kts 176°
2026-04-29 18:02 44.22326 -76.59375 302 ft 20 kts 171°
2026-04-29 18:02 44.22250 -76.59361 302 ft 19 kts 172°
2026-04-29 18:03 44.22165 -76.59411 303 ft 11 kts 231°
2026-04-29 18:03 44.22117 -76.59432 303 ft 1 kts 133°